Location: Cochrane
(49.0650°N, 81.0299°W)
Time: 05:41:56
(UTC-04:00)

ISS - Visible Passes

Search period start: 21 October 2019 00:00
Search period end: 31 October 2019 00:00
Orbit: 411 x 421 km, 51.6° (Epoch: 21 October)

Date Brightness Start Highest point End Pass type
(mag) Time Alt. Az. Time Alt. Az. Time Alt. Az.
24 Oct -0.9 07:01:16 10° S 07:03:37 18° SE 07:05:58 10° E visible
25 Oct -0.7 06:14:04 10° SSE 06:15:15 11° SE 06:16:24 10° ESE visible
26 Oct -2.3 06:59:43 10° SW 07:02:51 37° SSE 07:05:59 10° E visible
27 Oct -1.7 06:12:29 16° S 06:14:21 25° SE 06:17:10 10° E visible
28 Oct -1.1 05:26:18 16° SE 05:26:18 16° SE 05:28:07 10° E visible
28 Oct -3.6 06:59:13 13° WSW 07:02:11 73° SSE 07:05:33 10° ENE visible
29 Oct -3.1 06:12:52 41° SSW 06:13:35 51° SSE 06:16:52 10° ENE visible
30 Oct -1.4 05:26:26 23° E 05:26:26 23° E 05:28:07 10° E visible
30 Oct -3.7 06:59:20 19° W 07:01:37 69° NNW 07:04:59 10° ENE visible
